Voltar ao catálogo

STARLINK-11320

AtivoComunicaçõesVLEO
NORAD 61942·PAYLOAD·🇺🇸 United States

Lançado Nov 14, 2024 de Vandenberg Space Force Base

Loading…

Próximas Passagens (próximas 24 horas)

TLE

AtualizadoSource: CelesTrak SupGP

Época: Sep 15, 2026, 02:00 UTC

1 61942C 24209D   26258.08381944  .00007425  00000+0  61150-4 0  2581
2 61942  53.1568 157.9587 0001184  77.8777 143.2870 15.69709914    18

Acompanhe STARLINK-11320 em tempo real com AllMySat

Download on the App Store